Zurück zum Katalog

H-2A R/B

AktivPO
NORAD 33500·ROCKET BODY·🇯🇵 Japan

Gestartet Jan 23, 2009 von Tanegashima Space Center

Loading…

Nächste Überflüge (nächste 24 Stunden)

TLE

AktuellSource: Space-Track

Epoche: Sep 14, 2026, 20:52 UTC

1 33500U 09002J   26257.86999572  .00001388  00000-0  10796-3 0  9995
2 33500  98.2175 288.2405 0030549 198.1007 161.9131 15.02806730957792

Verfolge H-2A R/B in Echtzeit mit AllMySat

Download on the App Store